Total_Precipitation_Accumulation
1.50 1.61 1.72 1.75 1.79 1.88 2.00 2.10 2.15 2.04 1.83 1.67 1.68 1.69 1.71 1.76 1.92 1.55 1.49 1.72 1.61 1.53 1.46 1.37 1.31 1.32 1.35 1.39 1.45 1.52 1.59 1.65 1.71 1.77 1.86 2.02 2.12 2.19
1.23 1.31 1.42 1.51 1.60 1.69 1.82 1.92 1.97 1.94 1.86 1.68 1.62 1.62 1.61 1.56 1.71 1.39 1.39 1.59 1.48 1.40 1.33 1.29 1.23 1.22 1.23 1.27 1.33 1.33 1.31 1.30 1.33 1.35 1.37 1.44 1.60 1.79
1.25 1.29 1.35 1.40 1.47 1.50 1.52 1.58 1.71 1.82 1.90 1.82 1.66 1.62 1.62 1.57 1.50 1.32 1.23 1.21 1.24 1.31 1.27 1.24 1.17 1.12 1.12 1.11 1.08 1.08 1.06 1.04 1.07 1.10 1.10 1.15 1.22 1.31
1.14 1.19 1.19 1.19 1.26 1.35 1.41 1.40 1.46 1.57 1.69 1.75 1.66 1.53 1.49 1.49 1.45 1.39 1.18 1.06 1.06 1.11 1.05 1.01 1.02 0.99 0.95 0.95 0.94 0.91 0.89 0.89 0.90 0.92 0.94 0.97 1.02 1.10
0.98 0.99 1.00 1.03 1.04 1.07 1.13 1.19 1.22 1.25 1.39 1.44 1.43 1.38 1.34 1.28 1.34 1.33 1.22 1.23 1.05 1.02 0.93 0.86 0.83 0.81 0.78 0.75 0.79 0.83 0.81 0.75 0.72 0.73 0.76 0.80 0.83 0.87
0.79 0.78 0.84 0.91 0.93 0.94 0.92 0.96 1.02 1.13 1.22 1.27 1.24 1.25 1.26 1.18 1.21 1.26 1.23 1.17 1.05 0.88 0.91 0.79 0.71 0.65 0.65 0.66 0.65 0.66 0.69 0.72 0.77 0.74 0.66 0.59 0.59 0.59
0.65 0.62 0.63 0.72 0.82 0.79 0.73 0.82 0.93 1.05 1.11 1.13 1.08 1.03 1.02 1.08 1.10 1.07 1.06 1.06 1.00 0.88 0.93 0.84 0.77 0.73 0.73 0.71 0.68 0.63 0.64 0.63 0.65 0.65 0.61 0.53 0.50 0.47
0.65 0.65 0.59 0.60 0.62 0.60 0.60 0.72 0.88 0.92 0.97 1.03 1.02 1.02 1.02 1.02 1.04 1.05 1.09 1.12 1.13 0.95 0.91 0.84 0.77 0.81 0.79 0.75 0.71 0.64 0.60 0.64 0.61 0.57 0.56 0.53 0.50 0.49
0.62 0.61 0.54 0.51 0.57 0.57 0.57 0.62 0.69 0.71 0.79 0.94 1.03 1.01 1.03 1.07 1.12 1.09 1.15 1.20 1.18 1.08 1.10 1.01 0.82 0.77 0.63 0.59 0.63 0.57 0.56 0.59 0.60 0.56 0.54 0.54 0.51 0.50
0.58 0.58 0.59 0.58 0.54 0.55 0.54 0.57 0.66 0.73 0.74 0.79 0.95 0.96 0.93 0.99 1.06 1.14 1.21 1.22 1.18 1.14 1.19 1.19 0.89 0.79 0.65 0.69 0.65 0.53 0.50 0.50 0.53 0.52 0.51 0.50 0.50 0.51
0.48 0.45 0.48 0.53 0.54 0.52 0.55 0.68 0.75 0.81 0.68 0.69 0.78 0.86 0.88 0.93 0.93 1.01 1.21 1.37 1.32 1.12 1.10 1.19 0.99 0.85 0.75 0.74 0.68 0.60 0.52 0.50 0.47 0.48 0.49 0.50 0.52 0.56
0.47 0.44 0.42 0.43 0.43 0.44 0.54 0.69 0.79 0.80 0.72 0.73 0.89 0.98 0.96 1.03 1.01 1.05 1.27 1.36 1.32 1.28 1.11 1.14 1.10 1.07 1.00 0.79 0.73 0.69 0.66 0.59 0.51 0.49 0.48 0.49 0.56 0.59
0.47 0.49 0.44 0.34 0.32 0.35 0.48 0.58 0.65 0.64 0.74 0.91 1.01 1.03 1.05 1.10 1.06 1.03 1.18 1.27 1.35 1.40 1.17 1.17 1.18 1.20 1.22 0.97 0.77 0.72 0.73 0.73 0.72 0.73 0.70 0.62 0.59 0.58
0.50 0.48 0.43 0.33 0.32 0.37 0.46 0.53 0.55 0.63 0.81 1.00 1.08 1.07 0.99 0.97 0.97 0.96 1.08 1.15 1.19 1.18 1.09 1.15 1.28 1.30 1.21 1.01 0.86 0.75 0.77 0.85 0.94 1.01 0.99 0.93 0.79 0.74
0.39 0.36 0.33 0.34 0.38 0.50 0.53 0.53 0.62 0.83 0.94 1.02 1.10 1.09 0.99 0.92 0.89 0.85 0.93 1.07 1.07 0.93 0.80 0.86 1.07 1.11 1.13 1.06 0.97 0.90 0.90 0.91 1.04 1.19 1.23 1.15 1.03 0.91
0.38 0.38 0.42 0.47 0.52 0.61 0.69 0.79 0.84 0.89 0.89 0.98 1.03 0.98 0.88 0.83 0.87 0.86 0.94 1.04 1.08 0.98 0.80 0.75 0.85 0.98 1.05 0.96 0.97 0.97 0.96 1.05 1.08 1.19 1.33 1.37 1.23 0.99
0.30 0.46 0.68 0.74 0.81 0.87 0.90 0.95 1.01 0.94 0.87 0.88 0.91 0.92 0.88 0.85 0.84 0.81 0.88 0.96 1.04 1.01 0.89 0.80 0.80 0.83 0.84 0.83 0.91 0.94 0.97 1.05 1.16 1.24 1.36 1.50 1.44 1.18
0.34 0.57 0.69 0.75 0.82 0.84 0.84 0.88 0.94 0.96 0.88 0.83 0.84 0.84 0.83 0.81 0.82 0.78 0.79 0.91 1.01 0.94 0.89 0.84 0.80 0.81 0.81 0.76 0.81 0.90 0.97 1.12 1.22 1.26 1.24 1.35 1.54 1.40
0.50 0.65 0.67 0.72 0.77 0.73 0.72 0.78 0.82 0.82 0.75 0.73 0.73 0.73 0.72 0.72 0.79 0.80 0.75 0.75 0.77 0.75 0.74 0.73 0.76 0.83 0.87 0.92 0.92 1.01 1.08 1.14 1.21 1.20 1.20 1.29 1.47 1.42
0.60 0.64 0.65 0.66 0.69 0.68 0.67 0.67 0.65 0.61 0.57 0.60 0.67 0.69 0.69 0.69 0.70 0.71 0.65 0.62 0.68 0.68 0.66 0.70 0.74 0.79 0.85 0.90 1.07 1.21 1.15 1.03 1.04 1.17 1.26 1.31 1.42 1.41
0.53 0.55 0.56 0.57 0.58 0.63 0.63 0.57 0.53 0.50 0.48 0.50 0.55 0.61 0.64 0.61 0.62 0.59 0.54 0.47 0.54 0.60 0.63 0.66 0.68 0.68 0.71 0.78 0.93 1.09 1.12 1.15 1.11 1.15 1.20 1.21 1.13 1.04
0.44 0.47 0.45 0.44 0.47 0.49 0.48 0.45 0.43 0.44 0.43 0.43 0.44 0.45 0.46 0.49 0.51 0.48 0.44 0.44 0.49 0.51 0.54 0.57 0.57 0.58 0.64 0.75 0.90 1.03 1.04 0.94 0.93 1.00 1.03 0.93 0.82 0.86
0.42 0.41 0.38 0.35 0.35 0.37 0.38 0.40 0.39 0.39 0.40 0.42 0.41 0.38 0.37 0.37 0.36 0.35 0.36 0.35 0.35 0.37 0.42 0.47 0.48 0.50 0.52 0.55 0.64 0.71 0.68 0.63 0.62 0.64 0.75 0.83 0.83 0.87